Content
SEND FEEDBACK

Daily
Averages
Monthly
Summary
United States of America

STATEN ISLAND, NEW YORK


Home > North America > United States > New York
Elevation: 152 feet     Latitude: 40 35N     Longitude: 074 09W

WEATHER
 
SELECT A DAY
Number of Records: 193,924;   Date Range: 1/1/95 - 12/18/14
 
SHARE

PRINT THIS DATA

[ ← Previous Day ]
WEATHER ALMANAC - AUGUST 14, 2013
[ Next Day → ]
[ °C ]   °F
Weather ElementAverageHighLow
Temperature69.1 °F75.9 °F (1:51 pm)62.1 °F (5:51 am)
Dewpoint49.8 °F60.1 °F (2:51 am)45 °F (9:51 am)
Humidity51 %76 % (2:51 am)40 % (1:51 pm)
Barometer29.89 in30.06 in (11:51 pm)29.76 in (1:51 am)
Wind Speed14 mph20.7 mph (2:51 pm)
Wind Gust29.9 mph (11:51 am)
Weather ElementAverage
Visibility10 mi
Wind DirectionWNW (308.7 °)

Weather ElementTotal
Precipitation---
Cooling Degree Days4 (Base 65)
Growing Degree Days19 (Base 50)
Averaged from 23 records on August 14, 2013
WEATHER CONDITIONS BREAKOUT
WIND DIRECTION BREAKOUT
WEATHER BY HOUR - AUGUST 14, 2013
[ °C ]   °F
Local TimeTemperatureDewpointHumidityBarometerVisibilityWind DirectionWind SpeedGust SpeedPrecipitationEventsConditions
1:51 AM70.0 °F57.9 °F65 %29.76 in10.0 miNW (320°)13.8 mph20.7 mphMostly Cloudy
2:51 AM68.0 °F60.1 °F76 %29.78 in10.0 miWNW (300°)8.1 mphMostly Cloudy
3:51 AM66.0 °F52.0 °F60 %29.78 in10.0 miNW (310°)13.8 mph21.9 mphScattered Clouds
4:51 AM63.0 °F51.1 °F65 %29.80 in10.0 miNW (320°)12.7 mphScattered Clouds
5:51 AM62.1 °F46.0 °F56 %29.82 in10.0 miNW (320°)10.4 mphScattered Clouds
6:51 AM62.1 °F46.0 °F56 %29.85 in10.0 miWNW (300°)9.2 mph16.1 mphScattered Clouds
7:51 AM63.0 °F48.0 °F58 %29.85 in10.0 miWNW (300°)12.7 mph19.6 mphScattered Clouds
8:51 AM64.9 °F46.9 °F52 %29.86 in10.0 miWNW (300°)12.7 mphScattered Clouds
9:51 AM66.9 °F45.0 °F45 %29.86 in10.0 miNW (320°)18.4 mph27.6 mphScattered Clouds
10:51 AM70.0 °F48.0 °F46 %29.88 in10.0 miNW (310°)16.1 mph25.3 mphScattered Clouds
11:51 AM71.1 °F48.0 °F44 %29.88 in10.0 miNNW (340°)16.1 mph29.9 mphScattered Clouds
12:51 PM73.0 °F48.0 °F41 %29.88 in10.0 miNW (320°)17.3 mph29.9 mphScattered Clouds
1:51 PM75.9 °F50.0 °F40 %29.89 in10.0 miWNW (300°)18.4 mph29.9 mphMostly Cloudy
2:51 PM75.0 °F48.9 °F40 %29.89 in10.0 miNW (310°)20.7 mph29.9 mphMostly Cloudy
3:51 PM75.0 °F48.9 °F40 %29.88 in10.0 miNNW (330°)20.7 mph27.6 mphMostly Cloudy
4:51 PM75.0 °F50.0 °F41 %29.90 in10.0 miNW (310°)17.3 mph28.8 mphMostly Cloudy
5:51 PM75.0 °F51.1 °F43 %29.91 in10.0 miWNW (300°)18.4 mph26.5 mphMostly Cloudy
6:51 PM73.9 °F50.0 °F43 %29.92 in10.0 miNW (320°)17.3 mph25.3 mphScattered Clouds
7:51 PM71.1 °F48.9 °F45 %29.95 in10.0 miWNW (300°)16.1 mph25.3 mphScattered Clouds
8:51 PM69.1 °F48.9 °F49 %29.99 in10.0 miNW (310°)11.5 mphPartly Cloudy
9:51 PM68.0 °F50.0 °F52 %30.02 in10.0 miWNW (290°)6.9 mphClear
10:51 PM66.0 °F51.1 °F59 %30.04 in10.0 miWest (280°)6.9 mphClear
11:51 PM64.9 °F50.0 °F58 %30.06 in10.0 miWNW (290°)6.9 mphClear
Hourly data recorded from KEWR, located miles away from Staten Island, New York







STORIES FROM OUR PARTNERS